New Haven, CT

7:57 AM EST on January 18, 2018 (GMT -0500)
Tweed-New Haven

Weather History for KHVN - April, 2013

Change the Weather History Date:

Friday, April 26, 2013

  Actual Average Record
Temperature  
Mean Temperature 50 °F -  
Max Temperature 62 °F 60 °F 78 °F (1970)
Min Temperature 37 °F 42 °F 32 °F (2002)
Degree Days  
Heating Degree Days 16    
Moisture  
Dew Point 34 °F    
Average Humidity 52    
Maximum Humidity 82    
Minimum Humidity 31    
Precipitation  
Precipitation 0.00 in - - ()
Sea Level Pressure  
Sea Level Pressure 30.34 in    
Wind  
Wind Speed 3 mph (SW)    
Max Wind Speed 9 mph    
Max Gust Speed -    
Visibility 10 miles    
Events      
Averages and records for this station are not official NWS values.
T = Trace of Precipitation, MM = Missing Value Source: NWS Daily Summary

Daily Weather History Graph

Daily Weather History Graph

Search for Another Location

Airport or City:

Trip Planner

Search our weather history database for the weather conditions in past years. The results will help you decide how hot, cold, wet, or windy it might be!

Date:

Astronomy

Apr. 26, 2013 Rise Set
Actual Time 5:55 AM EDT 7:43 PM EDT
Civil Twilight 5:26 AM EDT 8:13 PM EDT
Nautical Twilight 4:50 AM EDT 8:49 PM EDT
Astronomical Twilight 4:11 AM EDT 9:28 PM EDT
Moon 9:04 PM EDT (4/26) 6:20 AM EDT (4/26)
Length of Visible Light 14h 47m
Length of Day
13h 48m
Full, 99% of the Moon is Illuminated
Apr 26
Full
May 2
Last Quarter
May 9
New
May 18
First Quarter
May 25
Full

Hourly Weather History & Observations

Time (EDT) Temp. Windchill Dew Point Humidity Pressure Visibility Wind Dir Wind Speed Gust Speed Precip Events Conditions
12:53 AM 44.1 °F - 35.1 °F 71% 30.28 in 10.0 mi Calm Calm - N/A   Clear
1:53 AM 42.1 °F - 34.0 °F 73% 30.28 in 10.0 mi Calm Calm - N/A   Clear
2:53 AM 41.0 °F - 33.8 °F 76% 30.28 in 10.0 mi Calm Calm - N/A   Clear
3:53 AM 39.0 °F - 33.1 °F 79% 30.29 in 10.0 mi Calm Calm - N/A   Clear
4:53 AM 39.0 °F - 34.0 °F 82% 30.30 in 10.0 mi Calm Calm - N/A   Clear
5:53 AM 37.0 °F - 30.0 °F 76% 30.32 in 10.0 mi Calm Calm - N/A   Clear
6:53 AM 44.1 °F 40.8 °F 32.0 °F 63% 30.35 in 10.0 mi North 5.8 mph - N/A   Clear
7:53 AM 48.0 °F - 32.0 °F 54% 30.35 in 10.0 mi North 3.5 mph - N/A   Clear
8:53 AM 54.0 °F - 30.0 °F 40% 30.36 in 10.0 mi Calm Calm - N/A   Clear
9:53 AM 55.0 °F - 32.0 °F 42% 30.37 in 10.0 mi WNW 3.5 mph - N/A   Clear
10:53 AM 57.9 °F - 35.1 °F 42% 30.37 in 10.0 mi South 6.9 mph - N/A   Clear
11:53 AM 57.9 °F - 37.0 °F 46% 30.37 in 10.0 mi South 8.1 mph - N/A   Partly Cloudy
12:53 PM 57.0 °F - 35.1 °F 44% 30.36 in 10.0 mi South 8.1 mph - N/A   Partly Cloudy
1:53 PM 59.0 °F - 37.9 °F 46% 30.35 in 10.0 mi South 8.1 mph - N/A   Scattered Clouds
2:53 PM 60.1 °F - 36.0 °F 41% 30.34 in 10.0 mi South 9.2 mph - N/A   Scattered Clouds
3:53 PM 62.1 °F - 39.0 °F 43% 30.34 in 10.0 mi South 6.9 mph - N/A   Scattered Clouds
4:53 PM 62.1 °F - 34.0 °F 35% 30.33 in 10.0 mi SW 9.2 mph - N/A   Clear
5:53 PM 62.1 °F - 30.9 °F 31% 30.33 in 10.0 mi SW 8.1 mph - N/A   Clear
6:53 PM 61.0 °F - 30.9 °F 32% 30.34 in 10.0 mi SW 5.8 mph - N/A   Clear
7:53 PM 59.0 °F - 32.0 °F 36% 30.35 in 10.0 mi SW 4.6 mph - N/A   Clear
8:53 PM 52.0 °F - 37.0 °F 57% 30.37 in 10.0 mi Calm Calm - N/A   Clear
9:53 PM 51.1 °F - 37.0 °F 59% 30.39 in 10.0 mi North 3.5 mph - N/A   Clear
10:53 PM 54.0 °F - 28.9 °F 38% 30.40 in 10.0 mi North 6.9 mph - N/A   Clear
11:53 PM 53.1 °F - 28.9 °F 40% 30.41 in 10.0 mi NNW 6.9 mph - N/A   Clear